Location: Unspecified
(41.5516°N, 88.1098°W)
Time: 13:03:10
(UTC-05:00)

Resurs 1-4 Rocket - Visible Passes

Search period start: 29 August 2014 00:00
Search period end: 08 September 2014 00:00
Orbit: 800 x 815 km, 98.3° (Epoch: 25 August)

Date Brightness Start Highest point End Pass type
(mag) Time Alt. Az. Time Alt. Az. Time Alt. Az.
29 Aug 3.9 04:11:05 10° NE 04:15:37 28° E 04:20:07 10° SSE visible
30 Aug 4.6 03:47:35 10° NE 03:50:59 17° E 03:54:21 10° SE visible
30 Aug 2.2 05:26:02 10° N 05:31:13 60° WNW 05:36:24 10° SSW visible
31 Aug 2.2 05:01:33 10° NNE 05:06:51 84° ESE 05:12:09 10° SSW visible
01 Sep 2.9 04:37:16 10° NNE 04:42:24 50° E 04:47:31 10° S visible
02 Sep 3.8 04:13:15 10° NE 04:17:52 30° E 04:22:28 10° SSE visible
03 Sep 4.5 03:49:40 10° NE 03:53:15 18° E 03:56:48 10° SE visible
03 Sep 2.2 05:28:17 10° N 05:33:27 56° WNW 05:38:37 10° SSW visible
04 Sep 5.0 03:27:54 10° E 03:28:31 10° E 03:29:09 10° E visible
04 Sep 2.1 05:03:47 10° NNE 05:09:06 88° ESE 05:14:24 10° SSW visible
05 Sep 2.8 04:39:28 10° NNE 04:44:39 53° E 04:49:49 10° S visible
06 Sep 3.7 04:15:25 10° NNE 04:20:08 32° E 04:24:49 10° SSE visible
06 Sep 2.9 05:55:16 10° N 05:59:56 33° WNW 06:04:36 10° SW visible
07 Sep 4.5 03:51:46 10° NE 03:55:31 19° E 03:59:15 10° SE visible
07 Sep 2.3 05:30:32 10° N 05:35:41 53° WNW 05:40:49 10° SSW visible
